Moenchengladbach, Germany

7:57 AM CEST on September 27, 2016 (GMT +0200)
Monchengladbach

Weather History for EDLN - November, 2013

Change the Weather History Date:

Saturday, November 30, 2013

  Actual Average Record
Temperature  
Mean Temperature 44 °F -  
Max Temperature 48 °F 44 °F 57 °F (2000)
Min Temperature 39 °F 37 °F 28 °F (2010)
Degree Days  
Heating Degree Days 22    
Moisture  
Dew Point 42 °F    
Average Humidity 94    
Maximum Humidity 100    
Minimum Humidity 81    
Precipitation  
Precipitation 0.00 in - - ()
Sea Level Pressure  
Sea Level Pressure 30.16 in    
Wind  
Wind Speed 7 mph ()    
Max Wind Speed 10 mph    
Max Gust Speed -    
Visibility 6.1 miles    
Events      
Averages and records for this station are not official NWS values.
T = Trace of Precipitation, MM = Missing Value Source: Averaged Metar Reports

Daily Weather History Graph

Daily Weather History Graph

Search for Another Location

Airport or City:

Trip Planner

Search our weather history database for the weather conditions in past years. The results will help you decide how hot, cold, wet, or windy it might be!

Date:

Astronomy

Nov. 30, 2013 Rise Set
Actual Time 8:14 AM CET 4:30 PM CET
Civil Twilight 7:36 AM CET 5:08 PM CET
Nautical Twilight 6:54 AM CET 5:50 PM CET
Astronomical Twilight 6:14 AM CET 6:30 PM CET
Moon 4:50 AM CET (11/30) 2:58 PM CET (11/30)
Length of Visible Light 9h 32m
Length of Day
8h 15m
Waning Crescent, 9% of the Moon is Illuminated
Nov 30
Waning Crescent
Dec 3
New
Dec 9
First Quarter
Dec 17
Full
Dec 25
Last Quarter

Hourly Weather History & Observations

Time (CET) Temp. Windchill Dew Point Humidity Pressure Visibility Wind Dir Wind Speed Gust Speed Precip Events Conditions
7:50 AM 39.2 °F 33.0 °F 39.2 °F 100% 30.01 in 6.2 mi WNW 9.2 mph - N/A   Scattered Clouds
8:20 AM 39.2 °F 33.6 °F 39.2 °F 100% 30.04 in 6.2 mi WNW 8.1 mph - N/A   Scattered Clouds
8:50 AM 39.2 °F 33.6 °F 39.2 °F 100% 30.04 in 5.0 mi West 8.1 mph - N/A   Scattered Clouds
9:20 AM 41.0 °F 36.4 °F 39.2 °F 93% 30.06 in 6.2 mi West 6.9 mph - N/A   Mostly Cloudy
9:50 AM 41.0 °F 36.4 °F 41.0 °F 100% 30.06 in 6.2 mi WNW 6.9 mph - N/A   Mostly Cloudy
10:20 AM 42.8 °F 39.3 °F 41.0 °F 93% 30.09 in 6.2 mi WNW 5.8 mph - N/A   Mostly Cloudy
10:50 AM 42.8 °F 38.6 °F 42.8 °F 100% 30.09 in 6.2 mi WNW 6.9 mph - N/A   Mostly Cloudy
11:20 AM 42.8 °F 37.0 °F 42.8 °F 100% 30.12 in 6.2 mi NW 10.4 mph - N/A   Mostly Cloudy
11:50 AM 44.6 °F 39.7 °F 44.6 °F 100% 30.12 in 6.2 mi NW 9.2 mph - N/A   Partly Cloudy
12:20 PM 44.6 °F 39.2 °F 42.8 °F 93% 30.12 in 6.2 mi NNW 10.4 mph - N/A   Scattered Clouds
12:50 PM 46.4 °F 41.5 °F 42.8 °F 87% 30.12 in 6.2 mi NNW 10.4 mph - N/A   Mostly Cloudy
1:20 PM 46.4 °F 42.4 °F 42.8 °F 87% 30.12 in 6.2 mi NNW 8.1 mph - N/A   Scattered Clouds
1:50 PM 48.2 °F - 42.8 °F 82% 30.15 in 6.2 mi NNW 6.9 mph - N/A   Scattered Clouds
2:20 PM 46.4 °F 41.9 °F 42.8 °F 87% 30.15 in 6.2 mi NW 9.2 mph - N/A   Mostly Cloudy
2:50 PM 46.4 °F 43.5 °F 42.8 °F 87% 30.18 in 6.2 mi NNW 5.8 mph - N/A   Mostly Cloudy
3:20 PM 46.4 °F 42.4 °F 42.8 °F 87% 30.18 in 6.2 mi NW 8.1 mph - N/A   Mostly Cloudy
3:50 PM 46.4 °F 42.9 °F 41.0 °F 81% 30.21 in 6.2 mi NW 6.9 mph - N/A   Mostly Cloudy
4:20 PM 44.6 °F 42.2 °F 42.8 °F 93% 30.21 in 6.2 mi NW 4.6 mph - N/A   Mostly Cloudy
4:50 PM 46.4 °F 44.3 °F 42.8 °F 87% 30.21 in 6.2 mi WNW 4.6 mph - N/A   Mostly Cloudy
5:20 PM 44.6 °F 42.2 °F 42.8 °F 93% 30.24 in - WNW 4.6 mph - N/A   Clear
5:50 PM 44.6 °F 41.4 °F 44.6 °F 100% 30.24 in - WNW 5.8 mph - N/A   Clear
6:20 PM 42.8 °F 39.3 °F 42.8 °F 100% 30.27 in - NW 5.8 mph - N/A   Clear
6:50 PM 42.8 °F 41.1 °F 42.8 °F 100% 30.27 in - WNW 3.5 mph - N/A   Clear
7:20 PM 42.8 °F 41.1 °F 42.8 °F 100% 30.27 in 6.2 mi NW 3.5 mph - N/A   Mostly Cloudy
7:50 PM 44.6 °F 41.4 °F 44.6 °F 100% 30.27 in 6.2 mi NW 5.8 mph - N/A   Mostly Cloudy
8:20 PM 44.6 °F 41.4 °F 42.8 °F 93% 30.30 in 6.2 mi WNW 5.8 mph - N/A   Mostly Cloudy